User: anonymous   Login
Location: Bishausen
(51.6334°N, 9.9631°E)
Time: 11:45:54
(UTC+00:00)
Language:

COSMOS 2428 - Orbit

View from above orbital plane
View from above orbital plane
View from above satellite
View from above satellite

Ground track
Ground track

The orbit data is extracted from the following two-line orbital elements,

1 31792U 07029A   24200.92061704 -.00000050  00000-0 -96854-6 0  9992
2 31792  70.9381  20.1821 0009795 354.5308   5.5704 14.12705811879605
Epoch (UTC): 18 July 2024 22:05:41
Eccentricity: 0.0009795
inclination: 70.9381°
perigee height: 843 km
apogee height: 857 km
right ascension of ascending node: 20.1821°
argument of perigee: 354.5308°
revolutions per day: 14.12705811
mean anomaly at epoch: 5.5704°
orbit number at epoch: 87960

The dashed part of the orbit path shows where the satellite is in the earth's shadow,  

DLR